PROBA-1 1 26958U 01049B 26062.51591279 .00003058 00000+0 20150-3 0 9995 2 26958 97.9623 67.3811 0057028 119.2510 241.4434 15.06982718327703 CUTE-1 (CO-55) 1 27844U 03031E 26062.45192711 .00000451 00000+0 21412-3 0 9990 2 27844 98.6779 72.3282 0010480 128.7736 231.4380 14.24260007176623 CUBESAT XI-IV (CO-57) 1 27848U 03031J 26062.45798096 .00000377 00000+0 18495-3 0 9996 2 27848 98.6808 72.1317 0010118 145.3523 214.8316 14.23556086176330 APRIZESAT 4 1 35684U 09041D 26062.45038324 .00001129 00000+0 14166-3 0 9998 2 35684 98.1499 135.6442 0042296 305.5261 54.2011 14.83694161895680 APRIZESAT 3 1 35686U 09041F 26062.35661443 .00003018 00000+0 26517-3 0 9995 2 35686 98.1883 210.6317 0063228 57.4098 303.3204 14.95868124900553 PROBA-2 1 36037U 09059B 26062.46124936 .00000405 00000+0 10505-3 0 9995 2 36037 98.2426 247.2815 0012103 244.9801 115.0140 14.54785880866154 APRIZESAT 5 1 37792U 11044E 26062.26897107 .00001925 00000+0 25136-3 0 9990 2 37792 98.2402 352.3647 0052209 345.3619 14.6077 14.80832104783110 APRIZESAT 6 1 37793U 11044F 26062.32782898 .00001221 00000+0 17938-3 0 9998 2 37793 98.2424 330.6487 0044514 65.3227 56.0527 14.76735630781524 PROBA-V 1 39159U 13021A 26062.41002332 .00000100 00000+0 62005-4 0 9992 2 39159 98.3497 46.2902 0005384 84.2459 275.9334 14.23571696666065 APRIZESAT 7 1 39416U 13066A 26062.41797431 .00002137 00000+0 21797-3 0 9992 2 39416 97.7588 17.2566 0035334 199.7551 160.2301 14.91256988665464 APRIZESAT 8 1 39425U 13066K 26062.33099631 .00001806 00000+0 20239-3 0 9992 2 39425 97.8109 11.3668 0044603 274.6248 84.9874 14.87400863663932 BUGSAT-1 (TITA) 1 40014U 14033E 26062.49366903 .00006772 00000+0 36906-3 0 9994 2 40014 98.0451 148.9666 0028956 179.1564 180.9720 15.14398953639835 SAUDISAT 4 1 40016U 14033G 26062.40789406 .00001132 00000+0 15603-3 0 9990 2 40016 97.7399 212.3079 0046079 58.7184 301.8528 14.79375612630438 APRIZESAT 9 1 40018U 14033J 26062.31964085 .00001393 00000+0 21201-3 0 9990 2 40018 97.8869 198.2216 0066395 179.5739 180.5538 14.74055785627967 APRIZESAT 10 1 40019U 14033K 26062.33984979 .00001043 00000+0 17163-3 0 9991 2 40019 97.9468 191.7741 0077737 251.4769 107.7980 14.70737930626696 TECHDEMOSAT-1 (TDS-1) 1 40076U 14037H 26062.50091140 .00013039 00000+0 77550-3 0 9990 2 40076 98.3761 44.4246 0004668 266.2821 93.7873 15.11402252632256 TECHNOSAT 1 42829U 17042E 26062.44139904 .00005254 00000+0 38065-3 0 9999 2 42829 97.4142 224.2527 0019613 95.2677 265.0788 15.04218488470800 FLYING LAPTOP 1 42831U 17042G 26062.50949628 .00003880 00000+0 31166-3 0 9999 2 42831 97.4245 222.4592 0018457 115.6537 244.6597 15.00465500470600 HAWK-A 1 43765U 18099H 26062.10681500 .00008793 00000+0 36968-3 0 9990 2 43765 97.4067 115.7610 0034515 299.7650 60.0155 15.23100254396948 HAWK-B 1 43794U 18099AN 26062.13722161 .00007866 00000+0 34877-3 0 9991 2 43794 97.4118 115.4183 0031786 317.5166 42.3610 15.21414722396908 HAWK-C 1 43799U 18099AT 26062.11675977 .00009749 00000+0 37013-3 0 9993 2 43799 97.4045 116.1843 0040666 301.5332 58.1937 15.26254441397721 SALSAT 1 46495U 20068K 26062.45227627 .00011292 00000+0 41535-3 0 9990 2 46495 97.8846 59.2205 0008758 322.9307 37.1326 15.28029625299203 HAWK-2C 1 47502U 21006CT 26062.08425720 .00008520 00000+0 26810-3 0 9995 2 47502 97.2428 108.5378 0006237 208.7329 151.3571 15.33166463283232 HAWK-2A 1 47505U 21006CW 26062.08784526 .00012497 00000+0 39176-3 0 9997 2 47505 97.2471 109.1559 0005786 211.7478 148.3417 15.33187043283230 HAWK-2B 1 47508U 21006CZ 26062.08459733 .00008487 00000+0 26713-3 0 9996 2 47508 97.2344 107.6629 0006386 210.1446 149.9430 15.33157814283233 HAWK-3B 1 48931U 21059BE 26062.46119439 .00040232 00000+0 47913-3 0 9992 2 48931 97.6711 249.8313 0005422 1.9140 358.2136 15.60990993261318 HAWK-3C 1 48948U 21059BX 26062.46096372 .00046459 00000+0 55258-3 0 9998 2 48948 97.6859 255.3179 0006079 2.2758 357.8524 15.60989832261315 HAWK-3A 1 48957U 21059CG 26062.46079124 .00046310 00000+0 55084-3 0 9997 2 48957 97.6798 252.6116 0005537 1.4257 358.7014 15.60993307261317 HAWK-5C 1 52754U 22057Y 26062.51614551 .00025585 00000+0 50401-3 0 9990 2 52754 97.6440 215.7991 0005645 95.9562 264.2330 15.47197377209984 HAWK-5B 1 52756U 22057AA 26062.45134097 .00025412 00000+0 50065-3 0 9992 2 52756 97.6442 214.0710 0005641 91.0787 269.1108 15.47196334209979 HAWK-5A 1 52757U 22057AB 26062.51573589 .00026142 00000+0 51487-3 0 9993 2 52757 97.6444 214.9729 0006019 92.8913 267.3025 15.47197783209989 HAWK-6B 1 55324U 23011A 26062.50458512 .00007568 00000+0 33453-3 0 9998 2 55324 40.5118 247.9898 0002996 344.4247 15.6470 15.21803280171733 HAWK-6C 1 55326U 23011C 26062.50398205 .00007966 00000+0 35172-3 0 9994 2 55326 40.4817 244.8751 0003391 331.7064 28.3560 15.21797291171746 HAWK-6A 1 55327U 23011D 26062.50399923 .00007790 00000+0 34412-3 0 9994 2 55327 40.4969 246.4756 0003094 330.5100 29.5534 15.21800202171747 HAWK-7A 1 56191U 23054P 26062.26364836 .00007490 00000+0 29277-3 0 9999 2 56191 97.2849 312.2952 0004538 63.8759 296.2946 15.26130632160863 HAWK-7B 1 56193U 23054R 26062.46022921 .00007151 00000+0 27966-3 0 9996 2 56193 97.2881 310.7104 0004004 73.4001 286.7677 15.26135045160899 HAWK-7C 1 56200U 23054Y 26062.46010197 .00007925 00000+0 30995-3 0 9992 2 56200 97.2852 311.5141 0003981 65.2121 294.9532 15.26096351160898